Weather History for Salisbury, MD

Change the Weather History Date:

Thursday, July 18, 2013

  Actual Average Record
Temperature  
Mean Temperature 87 °F 77 °F  
Max Temperature 97 °F 87 °F 100 °F (1953)
Min Temperature 77 °F 67 °F 56 °F (2003)
Degree Days  
Heating Degree Days 0 0  
Month to date heating degree days 0 0  
Since 1 June heating degree days 0 19  
Since 1 July heating degree days 0 0  
Cooling Degree Days 22 12  
Month to date cooling degree days 312 211  
Year to date cooling degree days 836 522  
Since 1 June cooling degree days 645 438  
Growing Degree Days 37 (Base 50)    
Moisture  
Dew Point 74 °F    
Average Humidity 67    
Maximum Humidity 91    
Minimum Humidity 42    
Precipitation  
Precipitation 0.00 in 0.15 in 4.19 in (1994)
Month to date precipitation 3.61 2.33  
Year to date precipitation 32.18 24.59  
Snow  
Snow 0.00 in 0.00 in 0.00 in (2002)
Month to date snowfall 0.0 0.0  
Since 1 July snowfall 0.0 0.0  
Snow Depth 0.00 in    
Sea Level Pressure  
Sea Level Pressure 30.08 in    
Wind  
Wind Speed 5 mph (SW)    
Max Wind Speed 15 mph    
Max Gust Speed 17 mph    
Visibility 8 miles    
Events      
T = Trace of Precipitation, MM = Missing Value Source: NWS Daily Summary

Daily Weather History Graph

Daily Weather History Graph

Search for Another Location

Airport:

Trip Planner

Search our weather history database for the weather conditions in past years. The results will help you decide how hot, cold, wet, or windy it might be!

Date:

Astronomy

Jul. 18, 2013 Rise Set
Actual Time 5:52 AM EDT 8:23 PM EDT
Civil Twilight 5:22 AM EDT 8:53 PM EDT
Nautical Twilight 4:44 AM EDT 9:31 PM EDT
Astronomical Twilight 4:02 AM EDT 10:13 PM EDT
Moon 4:17 PM EDT (7/18) 1:40 AM EDT (7/18)
Length of Visible Light 15h 31m
Length of Day
14h 30m
Waxing Gibbous, 77% of the Moon is Illuminated
Jul 18
Waxing Gibbous
Jul 22
Full
Jul 29
Last Quarter
Aug 6
New
Aug 14
First Quarter

Hourly Weather History & Observations

Time (EDT) Temp. Heat Index Dew Point Humidity Pressure Visibility Wind Dir Wind Speed Gust Speed Precip Events Conditions
12:54 AM 78.1 °F - 73.0 °F 84% 30.12 in 7.0 mi Calm Calm - N/A   Clear
1:54 AM 78.1 °F - 73.0 °F 84% 30.12 in 6.0 mi Calm Calm - N/A   Haze
2:54 AM 78.1 °F - 73.9 °F 87% 30.11 in 5.0 mi Calm Calm - N/A   Clear
3:54 AM 78.1 °F - 73.9 °F 87% 30.10 in 4.0 mi Calm Calm - N/A   Clear
4:54 AM 78.1 °F - 75.0 °F 90% 30.10 in 3.0 mi Calm Calm - N/A   Clear
5:54 AM 79.0 °F - 75.0 °F 88% 30.09 in 2.5 mi Calm Calm - N/A   Clear
6:17 AM 78.8 °F - 73.4 °F 83% 30.08 in 3.0 mi Calm Calm - N/A   Haze
6:54 AM 79.0 °F - 75.0 °F 88% 30.09 in 3.0 mi Calm Calm - N/A   Clear
7:54 AM 82.9 °F 91.8 °F 77.0 °F 82% 30.10 in 6.0 mi WSW 3.5 mph - N/A   Haze
8:54 AM 88.0 °F 100.2 °F 77.0 °F 70% 30.11 in 9.0 mi Variable 3.5 mph - N/A   Clear
9:54 AM 90.0 °F 101.3 °F 75.9 °F 63% 30.11 in 10.0 mi SW 6.9 mph - N/A   Clear
10:54 AM 91.9 °F 103.9 °F 75.9 °F 59% 30.11 in 10.0 mi Variable 5.8 mph - N/A   Clear
11:54 AM 93.9 °F 103.4 °F 73.0 °F 51% 30.10 in 9.0 mi SSW 8.1 mph - N/A   Clear
12:54 PM 95.0 °F 102.5 °F 71.1 °F 46% 30.09 in 10.0 mi SW 8.1 mph - N/A   Clear
1:54 PM 96.1 °F 102.9 °F 70.0 °F 43% 30.08 in 10.0 mi WNW 5.8 mph - N/A   Partly Cloudy
2:54 PM 93.9 °F 104.0 °F 73.9 °F 52% 30.06 in 10.0 mi SSW 10.4 mph - N/A   Scattered Clouds
3:54 PM 93.9 °F 104.0 °F 73.9 °F 52% 30.05 in 10.0 mi WSW 10.4 mph - N/A   Clear
4:54 PM 93.9 °F 103.4 °F 73.0 °F 51% 30.04 in 10.0 mi SW 10.4 mph - N/A   Clear
5:54 PM 93.9 °F 103.4 °F 73.0 °F 51% 30.02 in 10.0 mi SW 6.9 mph - N/A   Clear
6:54 PM 91.9 °F 100.7 °F 73.0 °F 54% 30.03 in 10.0 mi SW 4.6 mph - N/A   Clear
7:54 PM 88.0 °F 97.5 °F 75.0 °F 65% 30.04 in 9.0 mi SSW 5.8 mph - N/A   Clear
8:54 PM 84.9 °F 92.1 °F 73.9 °F 69% 30.06 in 10.0 mi SSW 3.5 mph - N/A   Clear
9:54 PM 84.0 °F 91.9 °F 75.0 °F 74% 30.06 in 9.0 mi South 3.5 mph - N/A   Clear
10:54 PM 82.9 °F 88.8 °F 73.0 °F 72% 30.05 in 9.0 mi SSW 8.1 mph - N/A   Clear
11:54 PM 81.0 °F 85.2 °F 72.0 °F 74% 30.05 in 10.0 mi SSW 4.6 mph - N/A   Clear